Weather in Paraguarí

Paraguay     25°37′24″S   57°09′01″W
temp.,
°C
wind,
m/s
gust,
m/s
humid.,
%
clouds,
%
prec.,
mm/h
press.,
hPa
HPBL,
m
15 april, thu
thu1523:00+24e236116 0.0 101270
02:00+22e11795 0.0 101215
05:00+20ne28925 0.5 1012163
08:00+23ne398842 1.6 1014314
11:00+30ne45467 0.0 10141070
14:00+33ne33365 0.0 10102028
17:00+30e47461 0.0 1009368
20:00+24ese3869100 0.4 1011240
16 april, fri
fri1623:00+21wsw119399 3.4 101323
02:00+20e2695100 5.9 1011129
05:00+19ese229593 0.1 101240
08:00+22ene388791 1.1 1013274
11:00+29nne245089 0.1 1014971
14:00+29e1249100 0.1 1011818
17:00+27se245962 0.0 1010145
20:00+22ese257366 0.0 101195
17 april, sat
sat1723:00+20e248288 0.1 101397
02:00+19ene12860 0.1 101230
05:00+18ese11860 0.0 101214
08:00+24ese24620 0.0 1014275
11:00+31e114188 0.0 10141216
14:00+32sse213635 0.0 10111979
17:00+28s25496 0.0 1010131
20:00+24sse310695 0.0 1012390
18 april, sun
sun1823:00+21se210786 0.0 1012282
02:00+20ese228391 0.0 101258
05:00+19ese228310 0.0 101237
08:00+22e137899 0.4 1014175
11:00+31ene11445 0.3 1014935
14:00+32s21372 0.3 10102083
17:00+28s244917 0.0 1010136
20:00+23sse39651 0.0 1011300
19 april, mon
mon1923:00+20se29760 0.0 1012196
02:00+20e22760 0.0 101145
05:00+19ene11740 0.0 101216
08:00+24ene12530 0.0 1013232
11:00+32ne22330 0.0 10121424
14:00+33ne22290 0.0 10103064
17:00+29e363945 0.0 1009180
20:00+24sse244765 0.0 101069